Location: Munkebjergskolens Observatorium
(55.3864°N, 10.3987°E)
Time: 23:12:48
(UTC+01:00)

DELTA 1 DEB - Pass Details

Date: 11 December 2023
Orbit: 783 x 826 km, 98.9° (Epoch: 04 March)

Event Time Altitude Azimuth Distance (km) Brightness Sun altitude
Rises 17:50:43 0° 165° (SSE) 3,304 ? -15.9°
Reaches altitude 10° 17:53:02 10° 167° (SSE) 2,384 ? -16.2°
Maximum altitude 17:58:19 79° 253° (WSW) 836 ? -16.9°
Drops below altitude 10° 18:03:42 10° 342° (NNW) 2,429 ? -17.7°
Sets 18:06:05 0° 343° (NNW) 3,371 ? -18.0°
